Regional Weather Roundup
Issued by NWS

Home | Current Version | Previous Version | Graphics & Text | Print | Product List | Glossary On
Versions: 1 2 3 4 5 6 7 8 9 10 11 12 13 14 15 16 17 18 19 20 21 22 23 24 25 26 27 28 29 30 31 32 33 34 35 36 37 38 39 40 41 42 43 44 45 46 47 48 49 50
000
ASUS43 KLSX 180059
RWRMO

WEATHER SUMMARY FOR MISSOURI
NATIONAL WEATHER SERVICE SPRINGFIELD MO
700 PM CST WED DEC 17 2014

NOTE: "FAIR" INDICATES FEW OR NO CLOUDS BELOW 12,000 FEET WITH NO
       SIGNIFICANT WEATHER AND/OR OBSTRUCTIONS TO VISIBILITY.
       CURRENT SKY AND/OR WEATHER CONDITIONS ARE NOT AVAILABLE FOR
       CHILLICOTHE AND FARMINGTON.

MOZ001>031-035>038-043-044-053-054-180200-
...NORTHERN AND WESTERN MISSOURI...

CITY           SKY/WX    TMP DP  RH WIND       PRES   REMARKS
KANSAS CTY INT CLOUDY    30  21  69 E8        30.25R WCI  22
KANSAS C DTWN  CLOUDY    31  21  66 E7        30.27R WCI  24
LEE`S SUMMIT   CLOUDY    29  21  72 E8        30.26R WCI  21
ST JOSEPH      CLOUDY    29  21  72 E8        30.27R WCI  21
CHILLICOTHE      N/A     30  21  69 CALM      30.29S
KIRKSVILLE     MOCLDY    25  21  85 NE3       30.26F

$$
MOZ066>068-077>081-088>096-101>105-180200-
...SOUTHWEST MISSOURI...

CITY           SKY/WX    TMP DP  RH WIND       PRES   REMARKS
SPRINGFIELD    LGT RAIN  34  31  88 CALM      30.22R
JOPLIN         MIX PCPN  32  31  96 VRB3      30.24R FOG

$$
MOZ032>034-039>042-045>050-055>058-069>072-180200-
...CENTRAL MISSOURI...

CITY           SKY/WX    TMP DP  RH WIND       PRES   REMARKS
COLUMBIA       CLOUDY    32  26  78 E6        30.25F WCI  26
JEFFERSON CITY CLOUDY    35  23  61 NE5       30.27F
ROLLA          CLOUDY    33  24  69 NE5       30.22F WCI  29
SEDALIA        CLOUDY    32  23  69 E6        30.27S WCI  26
WARRENSBURG    CLOUDY    30  23  74 CALM      30.28R
OSAGE BEACH    CLOUDY    34  21  60 E6        30.25R WCI  29

$$
MOZ051-052-059>065-180200-
...EAST CENTRAL MISSOURI...

CITY           SKY/WX    TMP DP  RH WIND       PRES   REMARKS
ST LOUIS INTL  MOCLDY    34  25  69 NE7       30.29S WCI  28
SPIRIT OF STL  CLOUDY   N/A N/A N/A NE5       30.28R
ST CHARLES     PTCLDY    30  25  81 NE7       30.30R WCI  23

$$
MOZ072>076-082>087-097>100-106>115-180200-
...SOUTH CENTRAL AND SOUTHEAST MISSOURI...

CITY           SKY/WX    TMP DP  RH WIND       PRES   REMARKS
CAPE GIRARDEAU CLOUDY    38  30  73 CALM      30.28S
FARMINGTON     CLOUDY    37  25  60 N8        30.26F
POPLAR BLUFF   CLOUDY    38  28  67 SE5       30.26F
WEST PLAINS    LGT RAIN  36  30  79 E5        30.21F

$$


USA.gov is the U.S. government's official web portal to all federal, state and local government web resources and services.